Moses Lake, WA

5:13 AM PDT on May 22, 2018 (GMT -0700)
Grant County International

Weather History for KMWH - October, 2012

Change the Weather History Date:

Wednesday, October 17, 2012

  Actual Average Record
Temperature  
Mean Temperature 47 °F 49 °F  
Max Temperature 59 °F 62 °F 75 °F (2003)
Min Temperature 35 °F 35 °F 20 °F (1984)
Degree Days  
Heating Degree Days 18 16  
Month to date heating degree days 183 218  
Since 1 July heating degree days 256 368  
Cooling Degree Days 0 0  
Month to date cooling degree days 0 0  
Year to date cooling degree days 719 614  
Moisture  
Dew Point 32 °F    
Average Humidity 58    
Maximum Humidity 82    
Minimum Humidity 33    
Precipitation  
Precipitation 0.00 in 0.02 in 0.66 in (2004)
Month to date precipitation 0.26 0.31  
Year to date precipitation 5.84 6.13  
Sea Level Pressure  
Sea Level Pressure 30.26 in    
Wind  
Wind Speed 5 mph (South)    
Max Wind Speed 20 mph    
Max Gust Speed 23 mph    
Visibility 10 miles    
Events      
T = Trace of Precipitation, MM = Missing Value Source: NWS Daily Summary

Daily Weather History Graph

Daily Weather History Graph

Search for Another Location

Airport or City:

Astronomy

Oct. 17, 2012 Rise Set
Actual Time 7:19 AM PDT 6:04 PM PDT
Civil Twilight 6:48 AM PDT 6:35 PM PDT
Nautical Twilight 6:12 AM PDT 7:11 PM PDT
Astronomical Twilight 5:37 AM PDT 7:46 PM PDT
Moon 10:11 AM PDT (10/17) 7:32 PM PDT (10/17)
Length of Visible Light 11h 47m
Length of Day
10h 45m
Waxing Crescent, 8% of the Moon is Illuminated
Oct 17
Waxing Crescent
Oct 21
First Quarter
Oct 29
Full
Nov 6
Last Quarter
Nov 13
New

Hourly Weather History & Observations

Time (PDT) Temp. Windchill Dew Point Humidity Pressure Visibility Wind Dir Wind Speed Gust Speed Precip Events Conditions
12:52 AM 46.9 °F - 33.1 °F 59% 30.15 in 10.0 mi WSW 16.1 mph - N/A   Clear
1:52 AM 48.0 °F - 30.9 °F 52% 30.17 in 10.0 mi West 12.7 mph - N/A   Clear
2:52 AM 45.0 °F 41.8 °F 33.1 °F 63% 30.18 in 10.0 mi SSW 5.8 mph - N/A   Clear
3:52 AM 43.0 °F 39.5 °F 33.1 °F 68% 30.19 in 10.0 mi SW 5.8 mph - N/A   Clear
4:52 AM 39.0 °F 36.8 °F 32.0 °F 76% 30.19 in 10.0 mi SSE 3.5 mph - N/A   Clear
5:52 AM 37.9 °F 33.5 °F 30.9 °F 76% 30.35 in 10.0 mi South 5.8 mph - N/A   Clear
6:52 AM 36.0 °F 32.1 °F 30.0 °F 79% 30.22 in 10.0 mi ESE 4.6 mph - N/A   Clear
7:52 AM 37.0 °F 32.4 °F 30.9 °F 79% 30.25 in 10.0 mi ESE 5.8 mph - N/A   Clear
8:52 AM 44.1 °F 40.1 °F 35.1 °F 71% 30.40 in 10.0 mi South 6.9 mph - N/A   Clear
9:52 AM 48.9 °F - 33.1 °F 54% 30.27 in 10.0 mi SSW 6.9 mph - N/A   Clear
10:52 AM 52.0 °F - 30.0 °F 43% 30.29 in 10.0 mi Calm Calm - N/A   Clear
11:52 AM 55.0 °F - 30.0 °F 38% 30.28 in 10.0 mi Calm Calm - N/A   Clear
12:52 PM 55.9 °F - 28.0 °F 34% 30.26 in 10.0 mi Calm Calm - N/A   Clear
1:52 PM 57.0 °F - 28.0 °F 33% 30.27 in 10.0 mi SW 5.8 mph - N/A   Clear
2:52 PM 57.9 °F - 28.9 °F 33% 30.25 in 10.0 mi SW 6.9 mph - N/A   Clear
3:52 PM 57.9 °F - 28.9 °F 33% 30.25 in 10.0 mi SSW 5.8 mph - N/A   Clear
4:52 PM 57.9 °F - 28.0 °F 32% 30.25 in 10.0 mi SW 6.9 mph - N/A   Clear
5:52 PM 55.0 °F - 28.0 °F 35% 30.40 in 10.0 mi Calm Calm - N/A   Clear
6:52 PM 53.1 °F - 32.0 °F 45% 30.25 in 10.0 mi ESE 3.5 mph - N/A   Clear
7:52 PM 50.0 °F - 34.0 °F 54% 30.26 in 10.0 mi SSE 4.6 mph - N/A   Mostly Cloudy
8:52 PM 50.0 °F - 35.1 °F 57% 30.41 in 10.0 mi SE 4.6 mph - N/A   Scattered Clouds
9:52 PM 48.9 °F - 36.0 °F 61% 30.27 in 10.0 mi Calm Calm - N/A   Mostly Cloudy
10:52 PM 46.9 °F - 35.1 °F 63% 30.26 in 10.0 mi ESE 3.5 mph - N/A   Mostly Cloudy
11:52 PM 46.9 °F - 35.1 °F 63% 30.26 in 10.0 mi ESE 4.6 mph - N/A   Scattered Clouds